GW7060 Weather Reports


Display with metric or nautical units.
time (UTC)temp
F
wind
direction
speed
MPH
gust
MPH
rain 1hr
in
rain 24hr
in
rain mn
in
humidity
%
barometer
mb
20260503224105 63 299 1.0 6.0 0.00 0.00 0.00 29 1016.3
20260503223107 63 332 3.0 5.0 0.00 0.00 0.00 30 1016.3
20260503222106 63 130 1.0 5.0 0.00 0.00 0.00 29 1016.3
20260503221106 63 316 2.0 4.0 0.00 0.00 0.00 30 1016.3
20260503220106 62 335 2.0 5.0 0.00 0.00 0.00 30 1016.2
20260503215106 62 311 4.0 8.0 0.00 0.00 0.00 31 1016.1
20260503214106 63 201 3.0 4.0 0.00 0.00 0.00 29 1016.3
20260503213125 62 326 4.0 9.0 0.00 0.00 0.00 29 1016.2
20260503212126 63 291 3.0 8.0 0.00 0.00 0.00 28 1016.2
20260503211105 63 302 4.0 9.0 0.00 0.00 0.00 29 1016.2
20260503210127 62 258 3.0 8.0 0.00 0.00 0.00 30 1016.1
20260503205106 62 336 3.0 10.0 0.00 0.00 0.00 30 1016.1
20260503204106 62 352 5.0 11.0 0.00 0.00 0.00 30 1016.2
20260503203106 61 335 5.0 9.0 0.00 0.00 0.00 31 1016.4
20260503202106 61 339 5.0 13.0 0.00 0.00 0.00 31 1016.4
20260503201105 61 333 5.0 11.0 0.00 0.00 0.00 30 1016.4
20260503200107 62 320 4.0 12.0 0.00 0.00 0.00 29 1016.6
20260503195107 62 319 4.0 10.0 0.00 0.00 0.00 28 1016.6
20260503194108 61 338 5.0 10.0 0.00 0.00 0.00 32 1016.7
20260503193107 61 343 2.0 6.0 0.00 0.00 0.00 30 1016.8
20260503192106 61 352 5.0 10.0 0.00 0.00 0.00 30 1017.0
20260503191106 61 343 6.0 12.0 0.00 0.00 0.00 30 1017.2
20260503190106 61 338 5.0 11.0 0.00 0.00 0.00 30 1017.3
20260503185106 60 2 5.0 9.0 0.00 0.00 0.00 31 1017.3
20260503184106 60 357 4.0 11.0 0.00 0.00 0.00 33 1017.3
20260503183107 60 308 5.0 11.0 0.00 0.00 0.00 32 1017.4
20260503182107 59 339 4.0 8.0 0.00 0.00 0.00 34 1017.3
20260503181107 59 28 4.0 13.0 0.00 0.00 0.00 35 1017.4
20260503180107 59 321 5.0 11.0 0.00 0.00 0.00 34 1017.4
20260503175107 60 346 5.0 12.0 0.00 0.00 0.00 34 1017.6
20260503174106 59 267 3.0 9.0 0.00 0.00 0.00 34 1017.6
20260503173106 59 321 3.0 12.0 0.00 0.00 0.00 35 1017.7
20260503172106 59 312 4.0 12.0 0.00 0.00 0.00 34 1017.8
20260503171106 58 304 5.0 11.0 0.00 0.00 0.00 34 1017.9
20260503170107 58 325 5.0 11.0 0.00 0.00 0.00 34 1018.0
20260503160106 57 319 3.0 9.0 0.00 0.00 0.00 36 1018.2
20260503150106 54 284 3.0 11.0 0.00 0.00 0.00 41 1018.1
20260503140107 52 359 5.0 13.0 0.01 0.00 0.00 48 1018.0
20260503131125 47 312 7.0 15.0 0.04 0.00 0.00 75 1017.6
20260503130107 48 351 8.0 15.0 0.03 0.00 0.00 70 1017.5
20260503120107 51 342 7.0 13.0 0.00 0.00 0.00 51 1016.6
20260503110126 52 351 6.0 13.0 0.00 0.00 0.00 50 1016.0
20260503100107 52 294 4.0 10.0 0.00 0.00 0.00 55 1014.8
20260503090106 54 353 7.0 15.0 0.00 0.00 0.00 52 1013.9
20260503081106 54 323 6.0 15.0 0.00 0.00 0.00 56 1013.3
20260503080106 54 349 5.0 13.0 0.00 0.00 0.00 57 1013.0
20260503072106 54 26 3.0 9.0 0.00 0.00 0.00 63 1012.8
20260503071106 54 326 4.0 6.0 0.00 0.00 0.00 62 1012.6
20260503070105 54 10 3.0 6.0 0.00 0.00 0.00 62 1012.5
20260503060106 54 340 3.0 9.0 0.00 0.00 0.00 58 1012.0
20260503055106 54 341 3.0 8.0 0.00 0.00 0.00 57 1012.1
20260503054146 55 347 3.0 7.0 0.00 0.00 0.00 59 1012.2
20260503053108 55 358 3.0 6.0 0.00 0.00 0.00 59 1012.3
20260503052127 55 306 2.0 7.0 0.00 0.00 0.00 57 1012.5
20260503051107 55 326 3.0 10.0 0.00 0.00 0.00 56 1012.4
20260503050107 55 336 4.0 6.0 0.00 0.00 0.00 54 1012.5
20260503045126 55 347 3.0 8.0 0.00 0.00 0.00 57 1012.5
20260503044126 55 334 3.0 5.0 0.00 0.00 0.00 56 1012.5
20260503043106 55 266 2.0 5.0 0.00 0.00 0.00 58 1012.6
20260503042105 55 330 2.0 5.0 0.00 0.00 0.00 59 1012.5
20260503041126 56 347 2.0 6.0 0.00 0.00 0.00 60 1012.5
20260503040107 56 320 3.0 7.0 0.00 0.00 0.00 60 1012.5
20260503035107 56 349 2.0 4.0 0.00 0.00 0.00 60 1012.5
20260503034107 56 314 2.0 4.0 0.00 0.00 0.00 61 1012.4
20260503033106 56 5 2.0 7.0 0.00 0.00 0.00 60 1012.2
20260503032106 56 341 3.0 6.0 0.00 0.00 0.00 58 1012.2
20260503031104 56 6 3.0 6.0 0.00 0.00 0.00 57 1012.3
20260503030103 57 323 2.0 5.0 0.00 0.00 0.00 57 1012.4
20260503025102 57 342 4.0 9.0 0.00 0.00 0.00 54 1012.6
20260503024059 57 355 4.0 10.0 0.00 0.00 0.00 53 1012.6
20260503023057 57 333 5.0 9.0 0.00 0.00 0.00 53 1012.4
20260503022057 57 346 4.0 10.0 0.00 0.00 0.00 53 1012.4
20260503021115 57 330 4.0 8.0 0.00 0.00 0.00 54 1012.3
20260503020053 57 324 3.0 8.0 0.00 0.00 0.00 56 1012.3
20260503015052 57 343 5.0 11.0 0.00 0.00 0.00 55 1012.4
20260503014110 57 332 5.0 11.0 0.00 0.00 0.00 55 1012.3
20260503013048 57 350 5.0 11.0 0.00 0.00 0.00 55 1012.2
20260503012046 57 331 4.0 12.0 0.00 0.00 0.00 55 1011.9
20260503011046 57 3 6.0 13.0 0.00 0.00 0.00 55 1012.0
20260503010044 56 343 5.0 11.0 0.00 0.00 0.00 55 1012.1
20260503005041 57 337 5.0 9.0 0.00 0.00 0.00 55 1012.0
20260503004041 57 353 6.0 11.0 0.00 0.00 0.00 54 1011.8
20260503003100 56 333 6.0 9.0 0.00 0.00 0.00 54 1011.9
20260503002037 57 342 6.0 11.0 0.00 0.00 0.00 54 1011.6
20260503001035 56 346 6.0 14.0 0.00 0.00 0.00 52 1011.5
20260503000035 56 360 5.0 11.0 0.00 0.00 0.00 55 1011.5
20260502235032 56 345 5.0 9.0 0.00 0.00 0.00 55 1011.6
20260502234030 56 348 6.0 13.0 0.00 0.00 0.00 53 1011.5
20260502233030 56 332 5.0 11.0 0.00 0.00 0.00 54 1011.3
20260502232028 56 349 7.0 13.0 0.00 0.00 0.00 51 1011.4
20260502231025 56 336 6.0 13.0 0.00 0.00 0.00 48 1011.5
20260502230044 56 358 7.0 12.0 0.00 0.00 0.00 45 1011.3
20260502225023 57 349 5.0 15.0 0.00 0.00 0.00 43 1011.5